Time,TemperatureF,DewpointF,PressureIn,WindDirection,WindDirectionDegrees,WindSpeedMPH,WindSpeedGustMPH,Humidity,HourlyPrecipIn,Conditions,Clouds,dailyrainin,SoftwareType,DateUTC
2013-02-03 00:00:00,46.0,28.0,18.32,North,350,0.0,0.0,49,0.00,,,0.00,VWS V14.00,2013-02-03 05:00:00,
2013-02-03 00:01:00,46.0,28.0,18.32,North,350,0.0,0.0,49,0.00,,,0.00,VWS V14.00,2013-02-03 05:01:00,
2013-02-03 00:06:00,45.9,27.8,18.32,North,350,0.0,0.0,49,0.00,,,0.00,VWS V14.00,2013-02-03 05:06:00,
2013-02-03 00:11:00,45.9,27.8,18.32,North,350,0.0,0.0,49,0.00,,,0.00,VWS V14.00,2013-02-03 05:11:00,
2013-02-03 00:16:00,45.7,28.1,18.32,North,350,0.0,0.0,50,0.00,,,0.00,VWS V14.00,2013-02-03 05:16:00,
2013-02-03 00:21:00,45.7,28.6,18.32,North,350,0.0,0.0,51,0.00,,,0.00,VWS V14.00,2013-02-03 05:21:00,
2013-02-03 00:26:00,45.7,28.6,18.32,North,350,0.0,0.0,51,0.00,,,0.00,VWS V14.00,2013-02-03 05:26:00,
2013-02-03 00:31:00,45.5,28.4,18.32,North,350,0.0,0.0,51,0.00,,,0.00,VWS V14.00,2013-02-03 05:31:00,
2013-02-03 00:37:00,45.5,28.4,18.32,North,350,0.0,0.0,51,0.00,,,0.00,VWS V14.00,2013-02-03 05:37:00,
2013-02-03 00:42:00,45.5,28.4,18.32,North,350,0.0,0.0,51,0.00,,,0.00,VWS V14.00,2013-02-03 05:42:00,
2013-02-03 00:47:00,45.5,28.9,18.32,North,350,0.0,0.0,52,0.00,,,0.00,VWS V14.00,2013-02-03 05:47:00,
2013-02-03 00:52:00,45.3,28.8,18.32,North,350,0.0,0.0,52,0.00,,,0.00,VWS V14.00,2013-02-03 05:52:00,
2013-02-03 00:57:00,45.1,28.1,18.32,WSW,241,0.0,3.1,51,0.00,,,0.00,VWS V14.00,2013-02-03 05:57:00,
2013-02-03 01:02:00,45.0,27.9,18.32,SW,233,0.0,0.0,51,0.00,,,0.00,VWS V14.00,2013-02-03 06:02:00,
2013-02-03 01:07:00,44.8,28.2,18.32,SW,233,0.0,0.0,52,0.00,,,0.00,VWS V14.00,2013-02-03 06:07:00,
2013-02-03 01:12:00,44.4,28.4,18.32,WSW,239,0.0,0.0,53,0.00,,,0.00,VWS V14.00,2013-02-03 06:12:00,
2013-02-03 01:17:00,44.2,28.7,18.32,WSW,239,0.0,0.0,54,0.00,,,0.00,VWS V14.00,2013-02-03 06:17:00,
2013-02-03 01:22:00,43.9,28.3,18.32,WSW,239,0.0,0.0,54,0.00,,,0.00,VWS V14.00,2013-02-03 06:22:00,
2013-02-03 01:27:00,43.7,28.6,18.32,NW,317,0.0,0.0,55,0.00,,,0.00,VWS V14.00,2013-02-03 06:27:00,
2013-02-03 01:32:00,43.5,28.9,18.32,NW,317,0.0,0.0,56,0.00,,,0.00,VWS V14.00,2013-02-03 06:32:00,
2013-02-03 01:37:00,43.5,28.9,18.32,NW,318,0.0,0.0,56,0.00,,,0.00,VWS V14.00,2013-02-03 06:37:00,
2013-02-03 01:42:00,43.3,29.1,18.32,NW,317,0.0,0.0,57,0.00,,,0.00,VWS V14.00,2013-02-03 06:42:00,
2013-02-03 01:47:00,43.3,29.6,18.32,NW,317,0.0,0.0,58,0.00,,,0.00,VWS V14.00,2013-02-03 06:47:00,
2013-02-03 01:53:00,43.3,29.6,18.32,NNE,13,0.0,0.0,58,0.00,,,0.00,VWS V14.00,2013-02-03 06:53:00,
2013-02-03 01:58:00,43.3,30.0,18.32,WSW,251,0.0,2.7,59,0.00,,,0.00,VWS V14.00,2013-02-03 06:58:00,
2013-02-03 02:03:00,43.3,30.0,18.32,WNW,297,0.0,0.0,59,0.00,,,0.00,VWS V14.00,2013-02-03 07:03:00,
2013-02-03 02:08:00,43.3,30.4,18.32,NW,312,0.0,3.6,60,0.00,,,0.00,VWS V14.00,2013-02-03 07:08:00,
2013-02-03 02:13:00,43.3,30.0,18.32,NW,316,0.0,2.7,59,0.00,,,0.00,VWS V14.00,2013-02-03 07:13:00,
2013-02-03 02:18:00,43.3,30.4,18.32,West,281,2.2,6.3,60,0.00,,,0.00,VWS V14.00,2013-02-03 07:18:00,
2013-02-03 02:23:00,43.3,30.4,18.32,NNW,331,0.0,3.6,60,0.00,,,0.00,VWS V14.00,2013-02-03 07:23:00,
2013-02-03 02:28:00,43.3,30.4,18.32,NW,317,0.0,0.0,60,0.00,,,0.00,VWS V14.00,2013-02-03 07:28:00,
2013-02-03 02:33:00,43.5,31.0,18.32,NW,316,2.7,3.6,61,0.00,,,0.00,VWS V14.00,2013-02-03 07:33:00,
2013-02-03 02:38:00,43.7,31.5,18.32,NW,318,2.2,3.6,62,0.00,,,0.00,VWS V14.00,2013-02-03 07:38:00,
2013-02-03 02:43:00,43.9,31.7,18.32,NNW,341,4.0,6.3,62,0.00,,,0.00,VWS V14.00,2013-02-03 07:43:00,
2013-02-03 02:48:00,43.7,32.0,18.32,North,357,5.4,5.4,63,0.00,,,0.00,VWS V14.00,2013-02-03 07:48:00,
2013-02-03 02:53:00,43.2,31.4,18.32,NW,326,4.0,6.3,63,0.00,,,0.00,VWS V14.00,2013-02-03 07:53:00,
2013-02-03 02:58:00,43.0,32.0,18.32,WNW,296,5.8,5.8,65,0.00,,,0.00,VWS V14.00,2013-02-03 07:58:00,
2013-02-03 03:03:00,42.8,32.6,18.32,West,271,3.1,11.0,67,0.00,,,0.00,VWS V14.00,2013-02-03 08:03:00,
2013-02-03 03:08:00,42.6,32.8,18.32,NNW,336,0.0,4.0,68,0.00,,,0.00,VWS V14.00,2013-02-03 08:08:00,
2013-02-03 03:13:00,42.4,33.0,18.32,WNW,302,0.0,7.2,69,0.00,,,0.00,VWS V14.00,2013-02-03 08:13:00,
2013-02-03 03:18:00,42.1,32.7,18.32,West,263,4.9,4.9,69,0.00,,,0.00,VWS V14.00,2013-02-03 08:18:00,
2013-02-03 03:23:00,41.9,32.8,18.32,NW,311,0.0,7.2,70,0.00,,,0.00,VWS V14.00,2013-02-03 08:23:00,
2013-02-03 03:29:00,41.7,33.0,18.32,NW,304,4.0,5.8,71,0.00,,,0.00,VWS V14.00,2013-02-03 08:29:00,
2013-02-03 03:34:00,41.5,33.2,18.32,NNW,337,2.7,5.4,72,0.00,,,0.00,VWS V14.00,2013-02-03 08:34:00,
2013-02-03 03:39:00,41.4,33.0,18.32,NW,307,7.6,7.6,72,0.00,,,0.00,VWS V14.00,2013-02-03 08:39:00,
2013-02-03 03:44:00,41.2,32.8,18.32,NNW,337,2.2,7.2,72,0.00,,,0.00,VWS V14.00,2013-02-03 08:44:00,
2013-02-03 03:49:00,41.0,32.7,18.32,NW,312,2.7,5.4,72,0.00,,,0.00,VWS V14.00,2013-02-03 08:49:00,
2013-02-03 03:54:00,40.8,32.8,18.32,West,274,3.6,5.8,73,0.00,,,0.00,VWS V14.00,2013-02-03 08:54:00,
2013-02-03 03:59:00,40.6,32.7,18.32,NW,321,4.0,4.0,73,0.00,,,0.00,VWS V14.00,2013-02-03 08:59:00,
2013-02-03 04:04:00,40.8,32.5,18.32,NNE,17,2.7,3.6,72,0.00,,,0.00,VWS V14.00,2013-02-03 09:04:00,
2013-02-03 04:09:00,40.6,32.0,18.32,NNW,340,3.1,3.6,71,0.00,,,0.00,VWS V14.00,2013-02-03 09:09:00,
2013-02-03 04:14:00,40.5,31.8,18.32,NW,312,4.0,4.0,71,0.00,,,0.00,VWS V14.00,2013-02-03 09:14:00,
2013-02-03 04:19:00,40.3,31.6,18.32,NNW,328,0.0,0.0,71,0.00,,,0.00,VWS V14.00,2013-02-03 09:19:00,
2013-02-03 04:24:00,39.9,31.3,18.32,NNW,338,0.0,0.0,71,0.00,,,0.00,VWS V14.00,2013-02-03 09:24:00,
2013-02-03 04:29:00,39.9,31.3,18.32,WNW,292,3.1,4.9,71,0.00,,,0.00,VWS V14.00,2013-02-03 09:29:00,
2013-02-03 04:34:00,40.1,31.5,18.32,WSW,246,3.1,3.1,71,0.00,,,0.00,VWS V14.00,2013-02-03 09:34:00,
2013-02-03 04:39:00,39.9,31.3,18.32,WSW,249,0.0,3.1,71,0.00,,,0.00,VWS V14.00,2013-02-03 09:39:00,
2013-02-03 04:44:00,39.9,30.9,18.32,West,270,0.0,2.7,70,0.00,,,0.00,VWS V14.00,2013-02-03 09:44:00,
2013-02-03 04:49:00,39.9,30.9,18.32,WSW,241,3.1,6.3,70,0.00,,,0.00,VWS V14.00,2013-02-03 09:49:00,
2013-02-03 04:54:00,39.7,30.8,18.32,WSW,254,0.0,3.1,70,0.00,,,0.00,VWS V14.00,2013-02-03 09:54:00,
2013-02-03 04:59:00,39.7,30.8,18.32,SW,220,0.0,3.6,70,0.00,,,0.00,VWS V14.00,2013-02-03 09:59:00,
2013-02-03 05:05:00,39.4,30.4,18.32,SW,217,0.0,0.0,70,0.00,,,0.00,VWS V14.00,2013-02-03 10:05:00,
2013-02-03 05:10:00,39.7,30.4,18.32,WNW,291,0.0,4.0,69,0.00,,,0.00,VWS V14.00,2013-02-03 10:10:00,
2013-02-03 05:15:00,39.7,30.1,18.32,WNW,295,0.0,0.0,68,0.00,,,0.00,VWS V14.00,2013-02-03 10:15:00,
2013-02-03 05:20:00,39.6,30.2,18.32,West,265,0.0,4.0,69,0.00,,,0.00,VWS V14.00,2013-02-03 10:20:00,
2013-02-03 05:25:00,39.4,29.7,18.32,WNW,284,3.1,3.6,68,0.00,,,0.00,VWS V14.00,2013-02-03 10:25:00,
2013-02-03 05:30:00,39.4,29.7,18.32,West,272,0.0,2.2,68,0.00,,,0.00,VWS V14.00,2013-02-03 10:30:00,
2013-02-03 05:35:00,39.2,29.5,18.32,West,266,0.0,2.7,68,0.00,,,0.00,VWS V14.00,2013-02-03 10:35:00,
2013-02-03 05:40:00,39.2,29.5,18.32,West,281,3.1,3.1,68,0.00,,,0.00,VWS V14.00,2013-02-03 10:40:00,
2013-02-03 05:45:00,39.2,29.5,18.32,WSW,255,3.6,6.3,68,0.00,,,0.00,VWS V14.00,2013-02-03 10:45:00,
2013-02-03 05:50:00,38.8,29.2,18.32,WNW,292,0.0,0.0,68,0.00,,,0.00,VWS V14.00,2013-02-03 10:50:00,
2013-02-03 05:55:00,38.8,29.2,18.32,WSW,251,2.2,2.2,68,0.00,,,0.00,VWS V14.00,2013-02-03 10:55:00,
2013-02-03 06:00:00,38.5,28.9,18.32,WNW,286,2.7,3.1,68,0.00,,,0.00,VWS V14.00,2013-02-03 11:00:00,
2013-02-03 06:05:00,38.5,28.9,18.32,WNW,290,11.0,11.0,68,0.00,,,0.00,VWS V14.00,2013-02-03 11:05:00,
2013-02-03 06:10:00,38.7,28.7,18.32,NW,322,2.2,5.8,67,0.00,,,0.00,VWS V14.00,2013-02-03 11:10:00,
2013-02-03 06:15:00,38.5,28.1,18.32,NNW,328,3.1,7.2,66,0.00,,,0.00,VWS V14.00,2013-02-03 11:15:00,
2013-02-03 06:20:00,38.8,27.7,18.32,NNW,346,2.7,6.7,64,0.00,,,0.00,VWS V14.00,2013-02-03 11:20:00,
2013-02-03 06:26:00,38.8,27.0,18.32,WNW,292,2.2,3.1,62,0.00,,,0.00,VWS V14.00,2013-02-03 11:26:00,
2013-02-03 06:31:00,38.5,26.6,18.32,West,266,4.5,6.3,62,0.00,,,0.00,VWS V14.00,2013-02-03 11:31:00,
2013-02-03 06:36:00,38.5,26.2,18.32,NNW,332,2.7,3.6,61,0.00,,,0.00,VWS V14.00,2013-02-03 11:36:00,
2013-02-03 06:41:00,38.7,26.0,18.32,WNW,283,3.1,6.3,60,0.00,,,0.00,VWS V14.00,2013-02-03 11:41:00,
2013-02-03 06:46:00,38.7,26.0,18.32,NW,322,3.1,8.1,60,0.00,,,0.00,VWS V14.00,2013-02-03 11:46:00,
2013-02-03 06:51:00,38.8,25.3,18.32,WNW,284,2.7,4.0,58,0.00,,,0.00,VWS V14.00,2013-02-03 11:51:00,
2013-02-03 06:56:00,38.7,25.2,18.32,NW,316,0.0,0.0,58,0.00,,,0.00,VWS V14.00,2013-02-03 11:56:00,
2013-02-03 07:01:00,38.3,24.8,18.32,West,272,8.7,8.7,58,0.00,,,0.00,VWS V14.00,2013-02-03 12:01:00,
2013-02-03 07:06:00,38.5,25.0,18.32,WNW,287,4.0,4.0,58,0.00,,,0.00,VWS V14.00,2013-02-03 12:06:00,
2013-02-03 07:11:00,38.8,24.9,18.32,SW,234,5.4,5.4,57,0.00,,,0.00,VWS V14.00,2013-02-03 12:11:00,
2013-02-03 07:16:00,38.7,23.9,18.32,WSW,242,0.0,0.0,55,0.00,,,0.00,VWS V14.00,2013-02-03 12:16:00,
2013-02-03 07:21:00,39.0,23.8,18.32,West,263,2.7,6.3,54,0.00,,,0.00,VWS V14.00,2013-02-03 12:21:00,
2013-02-03 07:26:00,38.7,23.5,18.32,WSW,253,3.6,3.6,54,0.00,,,0.00,VWS V14.00,2013-02-03 12:26:00,
2013-02-03 07:31:00,38.8,23.6,18.32,West,280,2.7,4.9,54,0.00,,,0.00,VWS V14.00,2013-02-03 12:31:00,
2013-02-03 07:36:00,38.8,23.2,18.32,SW,228,4.0,4.0,53,0.00,,,0.00,VWS V14.00,2013-02-03 12:36:00,
2013-02-03 07:41:00,38.8,23.2,18.32,NW,304,3.1,5.8,53,0.00,,,0.00,VWS V14.00,2013-02-03 12:41:00,
2013-02-03 07:46:00,38.8,23.2,18.32,NNW,344,2.7,3.6,53,0.00,,,0.00,VWS V14.00,2013-02-03 12:46:00,
2013-02-03 07:51:00,38.7,23.0,18.32,NW,321,3.1,6.3,53,0.00,,,0.00,VWS V14.00,2013-02-03 12:51:00,
2013-02-03 07:57:00,39.0,23.4,18.32,West,262,8.3,10.5,53,0.00,,,0.00,VWS V14.00,2013-02-03 12:57:00,
2013-02-03 08:02:00,39.2,22.6,18.32,South,179,2.7,3.6,51,0.00,,,0.00,VWS V14.00,2013-02-03 13:02:00,
2013-02-03 08:07:00,39.4,22.8,18.32,WSW,257,0.0,5.4,51,0.00,,,0.00,VWS V14.00,2013-02-03 13:07:00,
2013-02-03 08:12:00,39.4,22.8,18.32,SW,235,4.9,4.9,51,0.00,,,0.00,VWS V14.00,2013-02-03 13:12:00,
2013-02-03 08:17:00,39.9,23.3,18.32,SW,217,5.8,5.8,51,0.00,,,0.00,VWS V14.00,2013-02-03 13:17:00,
2013-02-03 08:22:00,40.3,23.1,18.32,SW,226,8.1,9.2,50,0.00,,,0.00,VWS V14.00,2013-02-03 13:22:00,
2013-02-03 08:27:00,40.3,23.1,18.32,West,273,3.1,6.3,50,0.00,,,0.00,VWS V14.00,2013-02-03 13:27:00,
2013-02-03 08:32:00,40.6,23.0,18.32,SW,233,4.0,4.0,49,0.00,,,0.00,VWS V14.00,2013-02-03 13:32:00,
2013-02-03 08:37:00,40.6,23.0,18.32,WSW,250,2.2,8.1,49,0.00,,,0.00,VWS V14.00,2013-02-03 13:37:00,
2013-02-03 08:42:00,41.0,22.8,18.32,WSW,239,3.1,3.1,48,0.00,,,0.00,VWS V14.00,2013-02-03 13:42:00,
2013-02-03 08:47:00,41.0,22.8,18.32,SW,227,0.0,7.6,48,0.00,,,0.00,VWS V14.00,2013-02-03 13:47:00,
2013-02-03 08:53:00,41.2,23.0,18.32,WSW,257,3.6,5.4,48,0.00,,,0.00,VWS V14.00,2013-02-03 13:53:00,
2013-02-03 08:58:00,41.5,22.8,18.32,NNW,330,6.7,10.1,47,0.00,,,0.00,VWS V14.00,2013-02-03 13:58:00,
2013-02-03 09:03:00,41.7,23.5,18.32,West,268,2.2,3.6,48,0.00,,,0.00,VWS V14.00,2013-02-03 14:03:00,
2013-02-03 09:08:00,42.1,23.3,18.32,WSW,248,0.0,4.9,47,0.00,,,0.00,VWS V14.00,2013-02-03 14:08:00,
2013-02-03 09:13:00,42.3,23.5,18.32,NW,324,0.0,6.3,47,0.00,,,0.00,VWS V14.00,2013-02-03 14:13:00,
2013-02-03 09:18:00,42.8,23.0,18.32,WSW,239,4.0,8.3,45,0.00,,,0.00,VWS V14.00,2013-02-03 14:18:00,
2013-02-03 09:23:00,42.8,22.4,18.32,West,276,4.5,6.3,44,0.00,,,0.00,VWS V14.00,2013-02-03 14:23:00,
2013-02-03 09:28:00,43.2,22.7,18.32,WSW,243,7.6,7.6,44,0.00,,,0.00,VWS V14.00,2013-02-03 14:28:00,
2013-02-03 09:33:00,43.7,22.7,18.32,SSW,212,5.4,7.6,43,0.00,,,0.00,VWS V14.00,2013-02-03 14:33:00,
2013-02-03 09:38:00,43.7,22.1,18.32,WSW,251,2.7,5.4,42,0.00,,,0.00,VWS V14.00,2013-02-03 14:38:00,
2013-02-03 09:43:00,44.2,22.0,18.32,WSW,245,6.3,8.3,41,0.00,,,0.00,VWS V14.00,2013-02-03 14:43:00,
2013-02-03 09:48:00,44.6,21.8,18.32,WSW,255,3.6,8.7,40,0.00,,,0.00,VWS V14.00,2013-02-03 14:48:00,
2013-02-03 09:53:00,45.1,21.7,18.32,WSW,254,7.6,8.1,39,0.00,,,0.00,VWS V14.00,2013-02-03 14:53:00,
2013-02-03 09:59:00,45.5,22.6,18.32,North,353,6.3,6.3,40,0.00,,,0.00,VWS V14.00,2013-02-03 14:59:00,
2013-02-03 10:04:00,46.2,22.6,18.32,West,277,8.1,8.1,39,0.00,,,0.00,VWS V14.00,2013-02-03 15:04:00,
2013-02-03 10:09:00,46.8,22.5,18.32,NW,306,4.0,6.3,38,0.00,,,0.00,VWS V14.00,2013-02-03 15:09:00,
2013-02-03 10:14:00,47.3,22.4,18.32,SSW,209,2.2,2.2,37,0.00,,,0.00,VWS V14.00,2013-02-03 15:14:00,
2013-02-03 10:19:00,47.5,22.5,18.32,SW,225,2.7,3.6,37,0.00,,,0.00,VWS V14.00,2013-02-03 15:19:00,
2013-02-03 10:24:00,48.4,22.7,18.32,SW,233,0.0,3.1,36,0.00,,,0.00,VWS V14.00,2013-02-03 15:24:00,
2013-02-03 10:29:00,48.9,22.5,18.32,WSW,241,3.6,5.4,35,0.00,,,0.00,VWS V14.00,2013-02-03 15:29:00,
2013-02-03 10:34:00,49.1,21.3,18.32,NNW,329,3.6,3.6,33,0.00,,,0.00,VWS V14.00,2013-02-03 15:34:00,
2013-02-03 10:39:00,49.5,20.1,18.32,SSW,195,3.6,8.1,31,0.00,,,0.00,VWS V14.00,2013-02-03 15:39:00,
2013-02-03 10:44:00,49.8,20.4,18.32,WNW,298,3.6,8.7,31,0.00,,,0.00,VWS V14.00,2013-02-03 15:44:00,
2013-02-03 10:49:00,50.7,21.2,18.32,West,260,4.9,6.3,31,0.00,,,0.00,VWS V14.00,2013-02-03 15:49:00,
2013-02-03 10:54:00,50.9,20.6,18.32,WSW,240,5.4,5.4,30,0.00,,,0.00,VWS V14.00,2013-02-03 15:54:00,
2013-02-03 10:59:00,51.4,20.3,18.32,NNW,329,3.6,9.6,29,0.00,,,0.00,VWS V14.00,2013-02-03 15:59:00,
2013-02-03 11:05:00,52.0,20.7,18.32,WNW,297,11.0,12.8,29,0.00,,,0.00,VWS V14.00,2013-02-03 16:05:00,
2013-02-03 11:10:00,52.3,20.2,18.32,North,0,0.0,5.8,28,0.00,,,0.00,VWS V14.00,2013-02-03 16:10:00,
2013-02-03 11:15:00,53.1,20.0,18.32,WSW,254,3.6,4.9,27,0.00,,,0.00,VWS V14.00,2013-02-03 16:15:00,
2013-02-03 11:20:00,53.6,20.5,18.32,SW,221,7.6,8.7,27,0.00,,,0.00,VWS V14.00,2013-02-03 16:20:00,
2013-02-03 11:25:00,53.6,19.6,18.32,NW,325,8.1,13.2,26,0.00,,,0.00,VWS V14.00,2013-02-03 16:25:00,
2013-02-03 11:30:00,53.6,19.6,18.32,WNW,290,4.0,4.0,26,0.00,,,0.00,VWS V14.00,2013-02-03 16:30:00,
2013-02-03 11:35:00,54.0,19.9,18.32,SSW,198,13.2,13.2,26,0.00,,,0.00,VWS V14.00,2013-02-03 16:35:00,
2013-02-03 11:40:00,54.0,19.9,18.32,WNW,291,13.2,19.7,26,0.00,,,0.00,VWS V14.00,2013-02-03 16:40:00,
2013-02-03 11:45:00,54.7,20.5,18.32,WNW,294,11.0,11.0,26,0.00,,,0.00,VWS V14.00,2013-02-03 16:45:00,
2013-02-03 11:50:00,55.0,20.8,18.32,NW,319,7.6,7.6,26,0.00,,,0.00,VWS V14.00,2013-02-03 16:50:00,
2013-02-03 11:55:00,55.0,20.8,18.32,WNW,285,8.1,8.3,26,0.00,,,0.00,VWS V14.00,2013-02-03 16:55:00,
2013-02-03 12:00:00,55.9,20.6,18.32,WNW,297,6.3,8.1,25,0.00,,,0.00,VWS V14.00,2013-02-03 17:00:00,
2013-02-03 12:05:00,56.1,20.8,18.32,SSW,213,5.8,12.3,25,0.00,,,0.00,VWS V14.00,2013-02-03 17:05:00,
2013-02-03 12:10:00,56.7,21.3,18.32,WSW,237,5.8,10.1,25,0.00,,,0.00,VWS V14.00,2013-02-03 17:10:00,
2013-02-03 12:15:00,56.8,21.4,18.32,SW,220,5.8,8.1,25,0.00,,,0.00,VWS V14.00,2013-02-03 17:15:00,
2013-02-03 12:21:00,56.8,21.4,18.32,WNW,291,8.3,12.8,25,0.00,,,0.00,VWS V14.00,2013-02-03 17:21:00,
2013-02-03 12:26:00,57.9,21.4,18.32,NW,312,5.8,7.6,24,0.00,,,0.00,VWS V14.00,2013-02-03 17:26:00,
2013-02-03 12:31:00,57.4,18.9,18.32,WNW,303,5.8,12.3,22,0.00,,,0.00,VWS V14.00,2013-02-03 17:31:00,
2013-02-03 12:36:00,57.6,19.0,18.32,SW,229,10.1,10.1,22,0.00,,,0.00,VWS V14.00,2013-02-03 17:36:00,
2013-02-03 12:41:00,58.6,22.0,18.32,SW,219,3.6,7.6,24,0.00,,,0.00,VWS V14.00,2013-02-03 17:41:00,
2013-02-03 12:46:00,58.6,19.9,18.32,WNW,297,7.6,15.0,22,0.00,,,0.00,VWS V14.00,2013-02-03 17:46:00,
2013-02-03 12:51:00,58.5,19.8,18.32,SW,219,4.9,5.4,22,0.00,,,0.00,VWS V14.00,2013-02-03 17:51:00,
2013-02-03 12:56:00,58.6,19.9,18.32,NW,305,6.3,7.6,22,0.00,,,0.00,VWS V14.00,2013-02-03 17:56:00,
2013-02-03 13:01:00,58.8,20.1,18.32,North,0,19.2,19.2,22,0.00,,,0.00,VWS V14.00,2013-02-03 18:01:00,
2013-02-03 13:06:00,58.5,19.8,18.32,North,9,7.2,13.6,22,0.00,,,0.00,VWS V14.00,2013-02-03 18:06:00,
2013-02-03 13:11:00,58.5,19.8,18.32,West,267,5.4,8.7,22,0.00,,,0.00,VWS V14.00,2013-02-03 18:11:00,
2013-02-03 13:16:00,59.2,20.4,18.32,West,267,9.6,10.1,22,0.00,,,0.00,VWS V14.00,2013-02-03 18:16:00,
2013-02-03 13:21:00,59.4,20.5,18.32,West,279,10.1,15.9,22,0.00,,,0.00,VWS V14.00,2013-02-03 18:21:00,
2013-02-03 13:26:00,58.8,20.1,18.32,North,0,5.8,19.2,22,0.00,,,0.00,VWS V14.00,2013-02-03 18:26:00,
2013-02-03 13:31:00,59.4,20.5,18.32,SW,218,5.8,15.4,22,0.00,,,0.00,VWS V14.00,2013-02-03 18:31:00,
2013-02-03 13:36:00,58.3,19.6,18.32,SW,226,5.4,11.9,22,0.00,,,0.00,VWS V14.00,2013-02-03 18:36:00,
2013-02-03 13:42:00,59.0,20.2,18.32,WNW,290,14.5,14.5,22,0.00,,,0.00,VWS V14.00,2013-02-03 18:42:00,
2013-02-03 13:47:00,59.4,20.5,18.32,NNW,338,8.7,10.5,22,0.00,,,0.00,VWS V14.00,2013-02-03 18:47:00,
2013-02-03 13:52:00,59.9,21.0,18.32,North,353,8.3,12.3,22,0.00,,,0.00,VWS V14.00,2013-02-03 18:52:00,
2013-02-03 13:57:00,59.9,17.6,18.32,NNE,14,8.3,12.3,19,0.00,,,0.00,VWS V14.00,2013-02-03 18:57:00,
2013-02-03 14:02:00,59.4,17.1,18.32,North,353,15.4,19.2,19,0.00,,,0.00,VWS V14.00,2013-02-03 19:02:00,
2013-02-03 14:07:00,59.9,17.6,18.32,North,353,10.1,16.8,19,0.00,,,0.00,VWS V14.00,2013-02-03 19:07:00,
2013-02-03 14:12:00,60.6,18.2,18.32,West,268,7.6,8.7,19,0.00,,,0.00,VWS V14.00,2013-02-03 19:12:00,
2013-02-03 14:17:00,60.4,18.0,18.32,WNW,289,5.8,12.3,19,0.00,,,0.00,VWS V14.00,2013-02-03 19:17:00,
2013-02-03 14:22:00,60.3,17.9,18.32,SSW,194,7.6,7.6,19,0.00,,,0.00,VWS V14.00,2013-02-03 19:22:00,
2013-02-03 14:27:00,60.1,17.7,18.32,SSW,208,11.0,11.0,19,0.00,,,0.00,VWS V14.00,2013-02-03 19:27:00,
2013-02-03 14:32:00,60.1,17.7,18.32,WNW,285,6.3,6.3,19,0.00,,,0.00,VWS V14.00,2013-02-03 19:32:00,
2013-02-03 14:37:00,60.6,18.2,18.32,WNW,302,5.8,5.8,19,0.00,,,0.00,VWS V14.00,2013-02-03 19:37:00,
2013-02-03 14:42:00,63.0,18.8,18.32,North,0,8.7,10.5,18,0.00,,,0.00,VWS V14.00,2013-02-03 19:42:00,
2013-02-03 14:47:00,66.4,20.3,18.32,North,3,6.3,8.1,17,0.00,,,0.00,VWS V14.00,2013-02-03 19:47:00,
2013-02-03 14:52:00,65.8,21.2,18.32,WNW,295,5.4,8.3,18,0.00,,,0.00,VWS V14.00,2013-02-03 19:52:00,
2013-02-03 14:58:00,68.0,21.6,18.32,West,272,5.4,9.6,17,0.00,,,0.00,VWS V14.00,2013-02-03 19:58:00,
2013-02-03 15:03:00,67.5,18.2,18.32,WNW,298,7.6,10.5,15,0.00,,,0.00,VWS V14.00,2013-02-03 20:03:00,
2013-02-03 15:08:00,69.3,19.7,18.32,NW,320,4.5,8.7,15,0.00,,,0.00,VWS V14.00,2013-02-03 20:08:00,
2013-02-03 15:13:00,67.1,17.9,18.32,North,357,8.7,15.9,15,0.00,,,0.00,VWS V14.00,2013-02-03 20:13:00,
2013-02-03 15:18:00,68.9,19.4,18.32,WNW,300,7.6,14.5,15,0.00,,,0.00,VWS V14.00,2013-02-03 20:18:00,
2013-02-03 15:23:00,65.8,16.9,18.32,North,349,10.1,10.1,15,0.00,,,0.00,VWS V14.00,2013-02-03 20:23:00,
2013-02-03 15:28:00,68.2,18.8,18.32,NW,321,6.3,6.3,15,0.00,,,0.00,VWS V14.00,2013-02-03 20:28:00,
2013-02-03 15:33:00,69.4,19.8,18.32,WSW,253,8.1,8.1,15,0.00,,,0.00,VWS V14.00,2013-02-03 20:33:00,
2013-02-03 15:38:00,69.6,20.0,18.32,SSW,194,3.6,3.6,15,0.00,,,0.00,VWS V14.00,2013-02-03 20:38:00,
2013-02-03 15:43:00,67.6,18.4,18.32,NNW,343,6.3,10.1,15,0.00,,,0.00,VWS V14.00,2013-02-03 20:43:00,
2013-02-03 15:48:00,67.3,18.1,18.32,WNW,300,4.0,6.3,15,0.00,,,0.00,VWS V14.00,2013-02-03 20:48:00,
2013-02-03 15:53:00,67.8,18.5,18.32,West,266,8.3,10.5,15,0.00,,,0.00,VWS V14.00,2013-02-03 20:53:00,
2013-02-03 15:58:00,65.8,16.9,18.32,WNW,283,8.1,8.7,15,0.00,,,0.00,VWS V14.00,2013-02-03 20:58:00,
2013-02-03 16:03:00,70.3,18.9,18.32,WNW,295,4.0,8.1,14,0.00,,,0.00,VWS V14.00,2013-02-03 21:03:00,
2013-02-03 16:08:00,69.4,19.8,18.32,North,5,10.5,12.8,15,0.00,,,0.00,VWS V14.00,2013-02-03 21:08:00,
2013-02-03 16:14:00,66.4,17.4,18.32,NW,323,6.3,8.1,15,0.00,,,0.00,VWS V14.00,2013-02-03 21:14:00,
2013-02-03 16:19:00,64.6,15.9,18.32,NNE,18,8.7,11.0,15,0.00,,,0.00,VWS V14.00,2013-02-03 21:19:00,
2013-02-03 16:24:00,66.4,17.4,18.32,WNW,286,3.1,8.3,15,0.00,,,0.00,VWS V14.00,2013-02-03 21:24:00,
2013-02-03 16:29:00,65.7,16.8,18.32,NW,311,7.6,8.7,15,0.00,,,0.00,VWS V14.00,2013-02-03 21:29:00,
2013-02-03 16:34:00,65.8,16.9,18.32,NNW,345,5.4,9.2,15,0.00,,,0.00,VWS V14.00,2013-02-03 21:34:00,
2013-02-03 16:39:00,66.4,17.4,18.32,West,269,4.0,6.3,15,0.00,,,0.00,VWS V14.00,2013-02-03 21:39:00,
2013-02-03 16:44:00,66.0,17.1,18.32,WNW,290,5.4,5.8,15,0.00,,,0.00,VWS V14.00,2013-02-03 21:44:00,
2013-02-03 16:49:00,65.1,16.4,18.32,North,357,6.3,6.3,15,0.00,,,0.00,VWS V14.00,2013-02-03 21:49:00,
2013-02-03 16:54:00,64.6,15.9,18.32,NNW,338,6.3,6.3,15,0.00,,,0.00,VWS V14.00,2013-02-03 21:54:00,
2013-02-03 16:59:00,64.4,15.8,18.32,North,357,4.9,6.3,15,0.00,,,0.00,VWS V14.00,2013-02-03 21:59:00,
2013-02-03 17:04:00,61.2,14.6,18.32,North,353,8.7,8.7,16,0.00,,,0.00,VWS V14.00,2013-02-03 22:04:00,
2013-02-03 17:09:00,62.1,15.4,18.32,NW,324,7.2,7.2,16,0.00,,,0.00,VWS V14.00,2013-02-03 22:09:00,
2013-02-03 17:14:00,60.8,14.4,18.32,NW,318,5.8,8.3,16,0.00,,,0.00,VWS V14.00,2013-02-03 22:14:00,
2013-02-03 17:19:00,60.3,15.3,18.32,NNW,339,7.6,8.7,17,0.00,,,0.00,VWS V14.00,2013-02-03 22:19:00,
2013-02-03 17:24:00,59.4,14.6,18.32,NW,320,5.8,10.1,17,0.00,,,0.00,VWS V14.00,2013-02-03 22:24:00,
2013-02-03 17:29:00,58.6,14.0,18.32,North,2,5.8,8.7,17,0.00,,,0.00,VWS V14.00,2013-02-03 22:29:00,
2013-02-03 17:35:00,58.1,13.5,18.32,NNW,342,4.9,6.3,17,0.00,,,0.00,VWS V14.00,2013-02-03 22:35:00,
2013-02-03 17:40:00,57.6,13.1,18.32,North,353,5.4,6.7,17,0.00,,,0.00,VWS V14.00,2013-02-03 22:40:00,
2013-02-03 17:45:00,57.2,12.8,18.32,North,10,4.0,6.3,17,0.00,,,0.00,VWS V14.00,2013-02-03 22:45:00,
2013-02-03 17:50:00,57.0,12.7,18.32,NNW,327,4.0,5.8,17,0.00,,,0.00,VWS V14.00,2013-02-03 22:50:00,
2013-02-03 17:55:00,56.5,12.2,18.32,North,353,5.4,8.1,17,0.00,,,0.00,VWS V14.00,2013-02-03 22:55:00,
2013-02-03 18:00:00,56.3,12.1,18.32,North,357,4.0,4.0,17,0.00,,,0.00,VWS V14.00,2013-02-03 23:00:00,
2013-02-03 18:05:00,55.9,11.8,18.32,NNW,329,3.1,5.8,17,0.00,,,0.00,VWS V14.00,2013-02-03 23:05:00,
2013-02-03 18:10:00,55.4,11.3,18.32,North,5,3.1,5.4,17,0.00,,,0.00,VWS V14.00,2013-02-03 23:10:00,
2013-02-03 18:15:00,55.0,12.3,18.32,North,7,5.4,9.2,18,0.00,,,0.00,VWS V14.00,2013-02-03 23:15:00,
2013-02-03 18:20:00,54.7,12.0,18.32,NNW,330,3.1,3.1,18,0.00,,,0.00,VWS V14.00,2013-02-03 23:20:00,
2013-02-03 18:25:00,54.1,11.6,18.32,North,0,2.7,4.0,18,0.00,,,0.00,VWS V14.00,2013-02-03 23:25:00,
2013-02-03 18:30:00,54.1,11.6,18.32,North,0,3.1,5.8,18,0.00,,,0.00,VWS V14.00,2013-02-03 23:30:00,
2013-02-03 18:35:00,53.8,11.3,18.32,NW,319,5.4,5.4,18,0.00,,,0.00,VWS V14.00,2013-02-03 23:35:00,
2013-02-03 18:41:00,53.8,11.3,18.32,NNW,344,2.7,4.0,18,0.00,,,0.00,VWS V14.00,2013-02-03 23:41:00,
2013-02-03 18:46:00,53.4,11.0,18.32,NNW,345,0.0,4.9,18,0.00,,,0.00,VWS V14.00,2013-02-03 23:46:00,
2013-02-03 18:51:00,53.1,10.7,18.32,North,353,3.1,3.1,18,0.00,,,0.00,VWS V14.00,2013-02-03 23:51:00,
2013-02-03 18:56:00,52.7,10.4,18.32,NNW,330,2.2,3.6,18,0.00,,,0.00,VWS V14.00,2013-02-03 23:56:00,
2013-02-03 19:01:00,52.0,9.8,18.32,North,353,3.1,3.6,18,0.00,,,0.00,VWS V14.00,2013-02-04 00:01:00,
2013-02-03 19:06:00,51.8,9.7,18.32,North,353,0.0,2.7,18,0.00,,,0.00,VWS V14.00,2013-02-04 00:06:00,
2013-02-03 19:11:00,51.4,10.6,18.32,North,353,3.1,3.1,19,0.00,,,0.00,VWS V14.00,2013-02-04 00:11:00,
2013-02-03 19:16:00,51.1,10.3,18.32,NNW,329,3.1,3.1,19,0.00,,,0.00,VWS V14.00,2013-02-04 00:16:00,
2013-02-03 19:21:00,50.7,12.2,18.32,NNW,327,3.1,4.0,21,0.00,,,0.00,VWS V14.00,2013-02-04 00:21:00,
2013-02-03 19:26:00,50.5,12.1,18.32,NNW,342,3.1,3.1,21,0.00,,,0.00,VWS V14.00,2013-02-04 00:26:00,
2013-02-03 19:31:00,50.2,11.8,18.32,NNW,342,2.7,3.1,21,0.00,,,0.00,VWS V14.00,2013-02-04 00:31:00,
2013-02-03 19:36:00,50.2,11.8,18.32,NNW,342,0.0,0.0,21,0.00,,,0.00,VWS V14.00,2013-02-04 00:36:00,
2013-02-03 19:41:00,50.2,11.8,18.32,NW,316,2.2,2.7,21,0.00,,,0.00,VWS V14.00,2013-02-04 00:41:00,
2013-02-03 19:46:00,50.2,11.8,18.32,NW,316,0.0,0.0,21,0.00,,,0.00,VWS V14.00,2013-02-04 00:46:00,
2013-02-03 19:51:00,49.8,11.5,18.32,NW,316,0.0,2.7,21,0.00,,,0.00,VWS V14.00,2013-02-04 00:51:00,
2013-02-03 19:56:00,49.5,11.2,18.32,NW,316,2.2,2.2,21,0.00,,,0.00,VWS V14.00,2013-02-04 00:56:00,
2013-02-03 20:01:00,49.3,11.0,18.32,NW,316,2.7,2.7,21,0.00,,,0.00,VWS V14.00,2013-02-04 01:01:00,
2013-02-03 20:07:00,49.1,13.9,18.32,NNW,339,0.0,3.1,24,0.00,,,0.00,VWS V14.00,2013-02-04 01:07:00,
2013-02-03 20:12:00,48.9,13.7,18.32,NNW,338,2.2,3.1,24,0.00,,,0.00,VWS V14.00,2013-02-04 01:12:00,
2013-02-03 20:17:00,48.9,13.7,18.32,NW,315,0.0,3.6,24,0.00,,,0.00,VWS V14.00,2013-02-04 01:17:00,
2013-02-03 20:22:00,48.9,13.7,18.32,WNW,291,0.0,5.8,24,0.00,,,0.00,VWS V14.00,2013-02-04 01:22:00,
2013-02-03 20:27:00,48.9,13.7,18.32,NW,311,2.2,3.1,24,0.00,,,0.00,VWS V14.00,2013-02-04 01:27:00,
2013-02-03 20:32:00,48.6,13.4,18.32,NW,311,0.0,0.0,24,0.00,,,0.00,VWS V14.00,2013-02-04 01:32:00,
2013-02-03 20:37:00,48.2,13.1,18.32,NW,310,0.0,0.0,24,0.00,,,0.00,VWS V14.00,2013-02-04 01:37:00,
2013-02-03 20:42:00,47.7,12.7,18.32,NW,311,0.0,0.0,24,0.00,,,0.00,VWS V14.00,2013-02-04 01:42:00,
2013-02-03 20:47:00,47.3,15.0,18.32,NW,311,0.0,0.0,27,0.00,,,0.00,VWS V14.00,2013-02-04 01:47:00,
2013-02-03 20:52:00,47.1,14.9,18.32,NW,325,2.2,2.2,27,0.00,,,0.00,VWS V14.00,2013-02-04 01:52:00,
2013-02-03 20:57:00,47.1,14.9,18.32,NW,324,2.2,2.7,27,0.00,,,0.00,VWS V14.00,2013-02-04 01:57:00,
2013-02-03 21:02:00,46.9,14.7,18.32,NW,324,2.2,2.2,27,0.00,,,0.00,VWS V14.00,2013-02-04 02:02:00,
2013-02-03 21:07:00,46.8,14.6,18.32,NW,320,0.0,0.0,27,0.00,,,0.00,VWS V14.00,2013-02-04 02:07:00,
2013-02-03 21:12:00,46.6,14.4,18.32,NW,319,0.0,0.0,27,0.00,,,0.00,VWS V14.00,2013-02-04 02:12:00,
2013-02-03 21:17:00,46.6,14.4,18.32,West,273,4.0,4.9,27,0.00,,,0.00,VWS V14.00,2013-02-04 02:17:00,
2013-02-03 21:23:00,46.6,15.2,18.32,NNW,330,4.0,4.0,28,0.00,,,0.00,VWS V14.00,2013-02-04 02:23:00,
2013-02-03 21:28:00,47.1,15.7,18.32,NW,322,3.6,3.6,28,0.00,,,0.00,VWS V14.00,2013-02-04 02:28:00,
2013-02-03 21:33:00,47.3,15.9,18.32,North,353,4.0,4.0,28,0.00,,,0.00,VWS V14.00,2013-02-04 02:33:00,
2013-02-03 21:38:00,47.7,16.2,18.32,North,0,2.7,5.4,28,0.00,,,0.00,VWS V14.00,2013-02-04 02:38:00,
2013-02-03 21:43:00,47.7,16.2,18.32,NW,319,4.0,4.0,28,0.00,,,0.00,VWS V14.00,2013-02-04 02:43:00,
2013-02-03 21:48:00,47.7,16.2,18.32,North,1,3.6,5.8,28,0.00,,,0.00,VWS V14.00,2013-02-04 02:48:00,
2013-02-03 21:53:00,47.8,15.5,18.32,WNW,303,2.7,5.8,27,0.00,,,0.00,VWS V14.00,2013-02-04 02:53:00,
2013-02-03 21:58:00,47.8,15.5,18.32,WNW,290,4.0,4.0,27,0.00,,,0.00,VWS V14.00,2013-02-04 02:58:00,
2013-02-03 22:03:00,47.5,15.2,18.32,NW,305,0.0,7.6,27,0.00,,,0.00,VWS V14.00,2013-02-04 03:03:00,
2013-02-03 22:08:00,46.9,15.6,18.32,NNW,340,5.4,5.4,28,0.00,,,0.00,VWS V14.00,2013-02-04 03:08:00,
2013-02-03 22:13:00,46.6,15.2,18.32,NW,307,4.0,5.4,28,0.00,,,0.00,VWS V14.00,2013-02-04 03:13:00,
2013-02-03 22:18:00,46.6,15.2,18.32,WNW,289,0.0,2.2,28,0.00,,,0.00,VWS V14.00,2013-02-04 03:18:00,
2013-02-03 22:23:00,46.2,14.9,18.32,WNW,297,6.3,6.3,28,0.00,,,0.00,VWS V14.00,2013-02-04 03:23:00,
2013-02-03 22:28:00,46.0,14.8,18.32,NW,309,4.0,5.4,28,0.00,,,0.00,VWS V14.00,2013-02-04 03:28:00,
2013-02-03 22:33:00,45.9,14.6,18.32,WNW,293,3.1,5.4,28,0.00,,,0.00,VWS V14.00,2013-02-04 03:33:00,
2013-02-03 22:38:00,45.9,14.6,18.32,NW,306,4.9,6.3,28,0.00,,,0.00,VWS V14.00,2013-02-04 03:38:00,
2013-02-03 22:44:00,45.9,14.6,18.32,NW,315,4.5,7.6,28,0.00,,,0.00,VWS V14.00,2013-02-04 03:44:00,
2013-02-03 22:49:00,45.7,14.5,18.32,West,280,4.0,4.9,28,0.00,,,0.00,VWS V14.00,2013-02-04 03:49:00,
2013-02-03 22:54:00,45.5,14.3,18.32,WSW,253,4.9,5.8,28,0.00,,,0.00,VWS V14.00,2013-02-04 03:54:00,
2013-02-03 22:59:00,45.5,14.3,18.32,WNW,297,5.4,5.4,28,0.00,,,0.00,VWS V14.00,2013-02-04 03:59:00,
2013-02-03 23:04:00,45.7,14.5,18.32,NW,323,4.0,10.1,28,0.00,,,0.00,VWS V14.00,2013-02-04 04:04:00,
2013-02-03 23:09:00,45.5,14.3,18.32,WNW,297,5.4,5.8,28,0.00,,,0.00,VWS V14.00,2013-02-04 04:09:00,
2013-02-03 23:14:00,45.7,14.5,18.32,WNW,291,5.8,5.8,28,0.00,,,0.00,VWS V14.00,2013-02-04 04:14:00,
2013-02-03 23:19:00,45.7,14.5,18.32,WNW,285,4.9,7.6,28,0.00,,,0.00,VWS V14.00,2013-02-04 04:19:00,
2013-02-03 23:24:00,45.5,14.3,18.32,NW,317,0.0,0.0,28,0.00,,,0.00,VWS V14.00,2013-02-04 04:24:00,
2013-02-03 23:29:00,45.3,14.1,18.32,NW,310,3.6,6.3,28,0.00,,,0.00,VWS V14.00,2013-02-04 04:29:00,
2013-02-03 23:34:00,45.3,14.1,18.32,NW,306,4.9,4.9,28,0.00,,,0.00,VWS V14.00,2013-02-04 04:34:00,
2013-02-03 23:39:00,45.3,14.1,18.32,NNW,340,2.2,3.1,28,0.00,,,0.00,VWS V14.00,2013-02-04 04:39:00,
2013-02-03 23:44:00,45.3,14.1,18.32,West,274,7.6,7.6,28,0.00,,,0.00,VWS V14.00,2013-02-04 04:44:00,
2013-02-03 23:49:00,45.3,14.1,18.32,WNW,284,6.3,10.5,28,0.00,,,0.00,VWS V14.00,2013-02-04 04:49:00,
2013-02-03 23:54:00,45.1,14.0,18.32,West,269,4.5,4.5,28,0.00,,,0.00,VWS V14.00,2013-02-04 04:54:00,